#timestamp,LO_Frequency,Hit,StdDev 
1649001615.2,286047002.8,N
1649001635.0,286047000.8,N
1649001635.9,286047000.8,N
1649001655.8,286047001.2,N
1649001675.6,286047000.8,N
1649001695.4,286046999.5,N
1649001715.3,286046999.0,N
1649001735.1,286046999.1,N
1649001755.8,286046998.2,N
1649001775.7,286046998.2,N
1649001795.5,286047001.1,N
1649001815.4,286046998.8,N
1649001835.2,286046999.6,N
1649001855.0,286046997.8,N
1649001855.9,286046997.8,N
1649001875.8,286046997.2,N
1649001895.6,286046995.5,N
1649001915.4,286046995.3,N
1649001935.3,286046997.5,N
1649001955.1,286046995.1,N
1649001975.9,286046995.6,N
1649001995.7,286046995.5,N
1649002015.5,286046995.9,N
1649002035.4,286046996.2,N
1649002055.2,286046997.7,N
1649002075.0,286046994.9,N
1649002076.0,286046994.9,N
1649002095.8,286046996.2,N
1649002115.6,286046995.7,N
1649002135.5,286046995.8,N
1649002155.3,286046995.5,N
1649002175.1,286046995.3,N
1649002195.9,286046996.7,N
1649002215.7,286046999.1,N
1649002235.6,286046996.9,N
1649002255.4,286046999.4,N
1649002275.2,286046999.0,N
1649002295.1,286046999.2,N
1649002296.0,286046999.2,N
1649002315.8,286046997.2,N
1649002335.6,286046996.7,N
1649002355.5,286046999.2,N
1649002375.3,286046996.5,N
1649002395.2,286046999.6,N
1649002415.9,286046996.8,N
1649002435.7,286046997.5,N
1649002455.6,286046995.1,Y
1649002505.4,286046998.3,E
1649002515.4,286047000.3,N
1649002535.2,286047002.7,P
1649002555.0,286047000.7,N
1649002555.9,286047000.7,N
1649002575.8,286046998.5,N
1649002595.6,286046998.2,N
1649002615.5,286047002.8,N
1649002635.3,286046998.1,N
1649002655.1,286046998.2,N
1649002675.9,286046999.2,N
1649002695.7,286046997.9,N
1649002715.6,286046997.1,N
1649002735.4,286046996.8,N
1649002755.2,286046997.2,N
1649002775.1,286046996.8,N
1649002776.0,286046996.8,N
1649002795.8,286046999.2,N
1649002815.7,286047001.0,N
1649002835.5,286047000.8,N
1649002855.3,286046998.1,N
1649002875.2,286046998.6,N
1649002895.0,286046996.9,N
1649002895.9,286046996.9,N
1649002915.8,286046999.5,N
1649002935.6,286046999.4,N
1649002955.4,286046999.6,N
1649002975.3,286046999.2,N
1649002995.1,286046999.4,N
1649002996.0,286046999.4,N
1649003015.8,286046999.2,N
1649003035.7,286046999.6,N
1649003055.5,286046998.4,N
1649003075.4,286046999.2,N
1649003095.2,286046998.4,N
1649003115.0,286046998.1,N
1649003115.9,286046998.1,N
1649003135.8,286046998.4,N
1649003155.6,286046998.2,N
1649003175.4,286046998.5,N
1649003195.3,286046998.3,N
1649003215.1,286047000.4,N
1649003235.9,286047000.7,N
1649003255.7,286046998.6,N
1649003275.5,286046998.7,N
1649003295.4,286046999.0,N
1649003315.2,286046999.6,N
1649003335.0,286046996.6,Y
1649003336.0,286046996.6,P
1649003355.8,286046999.1,N
1649003375.6,286046998.7,N
1649003395.5,286047001.1,N
1649003415.3,286046999.9,N
1649003435.1,286047002.3,N
1649003455.9,286047002.6,N
1649003475.7,286047002.0,N
1649003495.6,286047002.4,N
1649003515.4,286047000.2,N
1649003535.2,286046999.8,N
1649003555.1,286046999.7,N
1649003556.0,286046999.7,N
1649003575.8,286047000.8,N
1649003595.7,286047000.9,N
1649003615.5,286046998.5,N
1649003635.3,286047000.6,N
1649003655.2,286047000.3,N
1649003675.0,286046998.2,N
1649003675.9,286046998.2,N
1649003695.8,286046996.5,N
1649003715.6,286046996.6,N
1649003735.4,286047000.5,N
1649003755.3,286046998.7,N
1649003775.1,286046998.5,N
1649003795.9,286047000.8,N
1649003815.7,286046998.5,N
1649003835.5,286047000.6,N
1649003855.4,286047000.4,N
1649003875.2,286047000.0,N
1649003895.0,286047002.7,N
1649003895.9,286047002.7,N
1649003915.8,286047000.6,N
1649003935.6,286047000.5,N
1649003955.5,286047002.8,N
1649003975.3,286047000.1,N
1649003995.1,286047002.6,N
1649004015.9,286047002.6,N
1649004035.7,286047000.2,N
1649004055.6,286047002.5,N
1649004075.4,286047001.8,N
1649004095.2,286047003.7,N
1649004115.1,286047004.2,N
1649004116.0,286047004.2,N
1649004135.8,286047002.3,N
1649004155.7,286047002.6,N
1649004175.5,286047003.2,N
1649004195.3,286047005.6,N
1649004215.2,286047001.7,N
1649004235.0,286047001.8,N
1649004235.9,286047001.8,N
1649004255.8,286047002.6,N
1649004275.6,286047002.0,N
1649004295.4,286047002.0,N
1649004315.3,286047001.3,N
1649004335.1,286047004.4,N
1649004355.9,286047003.6,N
1649004375.7,286047004.2,Y
1649004395.5,286047002.4,P
1649004415.4,286047002.8,P
1649004435.2,286046999.8,N
1649004455.0,286047001.4,N
1649004455.9,286047001.4,N
1649004475.8,286047002.0,N
1649004495.6,286047001.5,N
1649004515.5,286047003.9,Y
1649004535.3,286047000.2,P
1649004555.1,286047000.2,N
1649004575.9,286046998.4,N
1649004595.7,286047001.2,N
1649004615.6,286047001.2,N
1649004635.4,286047000.2,N
1649004655.2,286047000.5,N
1649004675.1,286047001.2,N
1649004676.0,286047001.2,N
1649004695.8,286047000.4,N
1649004715.7,286047002.7,Y
1649004735.5,286047011.9,P
1649004755.3,286047000.3,N
1649004775.2,286047002.8,N
1649004795.9,286047001.0,N
1649004815.7,286046998.2,N
1649004835.6,286047000.4,N
1649004855.4,286047000.3,N
1649004875.2,286047000.4,N
1649004895.1,286047000.2,N
1649004896.0,286047000.2,N
1649004915.8,286047002.7,N
1649004935.7,286047000.2,N
1649004955.5,286047002.2,N
1649004975.3,286047002.2,N
1649004995.2,286047000.2,N
1649005015.0,286047002.7,N
1649005015.9,286047002.7,N
1649005035.8,286047000.8,N
1649005055.6,286047002.3,N
1649005075.4,286047002.7,N
1649005095.3,286047000.6,N
1649005115.1,286047000.7,N
1649005135.8,286047000.0,N
1649005155.7,286047000.8,N
1649005175.5,286047000.4,N
1649005195.4,286046998.6,N
